Time,TemperatureF,DewpointF,PressureIn,WindDirection,WindDirectionDegrees,WindSpeedMPH,WindSpeedGustMPH,Humidity,HourlyPrecipIn,Conditions,Clouds,dailyrainin,SoftwareType,DateUTC
2013-03-15 00:03:00,36.0,21.0,30.13,North,0,0.0,0.0,54,0.00,,,0.00,,2013-03-15 04:03:00,
2013-03-15 00:12:00,36.0,21.0,30.13,North,0,0.0,0.0,54,0.00,,,0.00,,2013-03-15 04:12:00,
2013-03-15 00:23:00,36.0,21.0,30.13,North,0,0.0,0.0,54,0.00,,,0.00,,2013-03-15 04:23:00,
2013-03-15 00:33:00,36.0,20.0,30.14,North,0,0.0,0.0,52,0.00,,,0.00,,2013-03-15 04:33:00,
2013-03-15 00:43:00,36.0,20.0,30.14,North,0,0.0,0.0,52,0.00,,,0.00,,2013-03-15 04:43:00,
2013-03-15 00:52:00,36.0,21.0,30.14,North,0,0.0,0.0,53,0.00,,,0.00,,2013-03-15 04:52:00,
2013-03-15 01:02:00,36.0,20.0,30.14,North,0,0.0,0.0,52,0.00,,,0.00,,2013-03-15 05:02:00,
2013-03-15 01:12:00,36.0,20.0,30.14,North,0,0.0,0.0,52,0.00,,,0.00,,2013-03-15 05:12:00,
2013-03-15 01:22:00,36.0,20.0,30.14,North,0,0.0,0.0,51,0.00,,,0.00,,2013-03-15 05:22:00,
2013-03-15 01:32:00,36.0,20.0,30.15,North,0,0.0,0.0,51,0.00,,,0.00,,2013-03-15 05:32:00,
2013-03-15 01:42:00,36.0,20.0,30.15,North,0,0.0,0.0,51,0.00,,,0.00,,2013-03-15 05:42:00,
2013-03-15 01:52:00,36.0,20.0,30.15,North,0,0.0,0.0,52,0.00,,,0.00,,2013-03-15 05:52:00,
2013-03-15 02:02:00,35.0,20.0,30.14,North,0,0.0,0.0,53,0.00,,,0.00,,2013-03-15 06:02:00,
2013-03-15 02:12:00,35.0,20.0,30.14,North,0,0.0,0.0,53,0.00,,,0.00,,2013-03-15 06:12:00,
2013-03-15 02:22:00,35.0,20.0,30.14,North,0,0.0,0.0,53,0.00,,,0.00,,2013-03-15 06:22:00,
2013-03-15 02:32:00,35.0,20.0,30.14,North,0,0.0,0.0,54,0.00,,,0.00,,2013-03-15 06:32:00,
2013-03-15 02:42:00,35.0,20.0,30.14,North,0,0.0,0.0,54,0.00,,,0.00,,2013-03-15 06:42:00,
2013-03-15 02:53:00,34.0,19.0,30.14,North,0,0.0,0.0,54,0.00,,,0.00,,2013-03-15 06:53:00,
2013-03-15 03:02:00,34.0,20.0,30.14,North,0,0.0,0.0,57,0.00,,,0.00,,2013-03-15 07:02:00,
2013-03-15 03:12:00,34.0,20.0,30.14,North,0,0.0,0.0,57,0.00,,,0.00,,2013-03-15 07:12:00,
2013-03-15 03:22:00,34.0,20.0,30.14,North,0,0.0,0.0,57,0.00,,,0.00,,2013-03-15 07:22:00,
2013-03-15 03:32:00,33.0,20.0,30.14,North,0,0.0,0.0,58,0.00,,,0.00,,2013-03-15 07:32:00,
2013-03-15 03:42:00,33.0,20.0,30.14,North,0,0.0,0.0,58,0.00,,,0.00,,2013-03-15 07:42:00,
2013-03-15 03:52:00,33.0,20.0,30.13,North,0,0.0,0.0,58,0.00,,,0.00,,2013-03-15 07:52:00,
2013-03-15 04:02:00,32.0,19.0,30.13,North,0,0.0,0.0,59,0.00,,,0.00,,2013-03-15 08:02:00,
2013-03-15 04:12:00,32.0,19.0,30.13,North,0,0.0,0.0,59,0.00,,,0.00,,2013-03-15 08:12:00,
2013-03-15 04:23:00,32.0,20.0,30.12,North,0,0.0,0.0,60,0.00,,,0.00,,2013-03-15 08:23:00,
2013-03-15 04:33:00,31.0,19.0,30.11,North,0,0.0,0.0,61,0.00,,,0.00,,2013-03-15 08:33:00,
2013-03-15 04:42:00,31.0,19.0,30.11,North,0,0.0,0.0,61,0.00,,,0.00,,2013-03-15 08:42:00,
2013-03-15 04:52:00,30.0,18.0,30.12,North,0,0.0,0.0,61,0.00,,,0.00,,2013-03-15 08:52:00,
2013-03-15 05:02:00,30.0,19.0,30.12,North,0,0.0,0.0,64,0.00,,,0.00,,2013-03-15 09:02:00,
2013-03-15 05:12:00,30.0,19.0,30.12,North,0,0.0,0.0,64,0.00,,,0.00,,2013-03-15 09:12:00,
2013-03-15 05:22:00,30.0,19.0,30.12,North,0,0.0,0.0,64,0.00,,,0.00,,2013-03-15 09:22:00,
2013-03-15 05:33:00,29.0,19.0,30.13,North,0,0.0,0.0,67,0.00,,,0.00,,2013-03-15 09:33:00,
2013-03-15 05:43:00,29.0,19.0,30.13,North,0,0.0,0.0,67,0.00,,,0.00,,2013-03-15 09:43:00,
2013-03-15 05:53:00,29.0,19.0,30.14,North,0,0.0,0.0,67,0.00,,,0.00,,2013-03-15 09:53:00,
2013-03-15 06:03:00,28.0,19.0,30.14,North,0,0.0,0.0,69,0.00,,,0.00,,2013-03-15 10:03:00,
2013-03-15 06:13:00,28.0,19.0,30.14,North,0,0.0,0.0,69,0.00,,,0.00,,2013-03-15 10:13:00,
2013-03-15 06:23:00,28.0,19.0,30.14,North,0,0.0,0.0,69,0.00,,,0.00,,2013-03-15 10:23:00,
2013-03-15 06:33:00,27.0,19.0,30.14,North,0,0.0,0.0,70,0.00,,,0.00,,2013-03-15 10:33:00,
2013-03-15 06:42:00,27.0,19.0,30.14,North,0,0.0,0.0,70,0.00,,,0.00,,2013-03-15 10:42:00,
2013-03-15 06:52:00,27.0,19.0,30.15,North,0,0.0,0.0,71,0.00,,,0.00,,2013-03-15 10:52:00,
2013-03-15 07:03:00,27.0,19.0,30.15,North,0,0.0,0.0,71,0.00,,,0.00,,2013-03-15 11:03:00,
2013-03-15 07:12:00,27.0,19.0,30.15,North,0,0.0,0.0,71,0.00,,,0.00,,2013-03-15 11:12:00,
2013-03-15 07:23:00,27.0,19.0,30.15,North,0,0.0,0.0,72,0.00,,,0.00,,2013-03-15 11:23:00,
2013-03-15 07:32:00,27.0,19.0,30.15,North,0,0.0,0.0,72,0.00,,,0.00,,2013-03-15 11:32:00,
2013-03-15 07:42:00,27.0,19.0,30.15,North,0,0.0,0.0,72,0.00,,,0.00,,2013-03-15 11:42:00,
2013-03-15 07:52:00,27.0,20.0,30.15,North,0,0.0,0.0,73,0.00,,,0.00,,2013-03-15 11:52:00,
2013-03-15 08:02:00,26.0,19.0,30.15,North,0,0.0,0.0,75,0.00,,,0.00,,2013-03-15 12:02:00,
2013-03-15 08:12:00,26.0,19.0,30.15,North,0,0.0,0.0,75,0.00,,,0.00,,2013-03-15 12:12:00,
2013-03-15 08:23:00,26.0,19.0,30.15,North,0,0.0,0.0,75,0.00,,,0.00,,2013-03-15 12:23:00,
2013-03-15 08:32:00,27.0,21.0,30.17,North,0,0.0,0.0,77,0.00,,,0.00,,2013-03-15 12:32:00,
2013-03-15 08:42:00,27.0,21.0,30.17,North,0,0.0,0.0,77,0.00,,,0.00,,2013-03-15 12:42:00,
2013-03-15 08:52:00,27.0,21.0,30.17,North,0,0.0,0.0,78,0.00,,,0.00,,2013-03-15 12:52:00,
2013-03-15 09:02:00,28.0,22.0,30.17,North,0,0.0,0.0,78,0.00,,,0.00,,2013-03-15 13:02:00,
2013-03-15 09:12:00,28.0,22.0,30.17,North,0,0.0,0.0,78,0.00,,,0.00,,2013-03-15 13:12:00,
2013-03-15 09:22:00,34.0,24.0,30.16,North,0,0.0,0.0,67,0.00,,,0.00,,2013-03-15 13:22:00,
2013-03-15 09:32:00,38.0,25.0,30.17,North,0,0.0,1.0,58,0.00,,,0.00,,2013-03-15 13:32:00,
2013-03-15 09:42:00,38.0,25.0,30.17,North,0,0.0,1.0,58,0.00,,,0.00,,2013-03-15 13:42:00,
2013-03-15 09:53:00,39.0,26.0,30.16,North,0,0.0,1.0,59,0.00,,,0.00,,2013-03-15 13:53:00,
2013-03-15 10:02:00,40.0,25.0,30.16,North,0,0.0,2.0,55,0.00,,,0.00,,2013-03-15 14:02:00,
2013-03-15 10:12:00,40.0,25.0,30.16,North,0,0.0,2.0,55,0.00,,,0.00,,2013-03-15 14:12:00,
2013-03-15 10:22:00,42.0,24.0,30.16,North,0,0.0,2.0,49,0.00,,,0.00,,2013-03-15 14:22:00,
2013-03-15 10:33:00,45.0,25.0,30.15,North,0,0.0,3.0,45,0.00,,,0.00,,2013-03-15 14:33:00,
2013-03-15 10:42:00,45.0,25.0,30.15,North,0,0.0,3.0,45,0.00,,,0.00,,2013-03-15 14:42:00,
2013-03-15 10:52:00,45.0,25.0,30.14,SE,135,1.0,5.0,46,0.00,,,0.00,,2013-03-15 14:52:00,
2013-03-15 11:02:00,47.0,25.0,30.13,SE,139,4.0,10.0,42,0.00,,,0.00,,2013-03-15 15:02:00,
2013-03-15 11:13:00,47.0,25.0,30.13,SE,139,4.0,10.0,42,0.00,,,0.00,,2013-03-15 15:13:00,
2013-03-15 11:23:00,49.0,27.0,30.13,North,0,0.0,5.0,42,0.00,,,0.00,,2013-03-15 15:23:00,
2013-03-15 11:33:00,51.0,27.0,30.11,South,171,1.0,4.0,39,0.00,,,0.00,,2013-03-15 15:33:00,
2013-03-15 11:42:00,52.0,30.0,30.11,North,0,0.0,3.0,42,0.00,,,0.00,,2013-03-15 15:42:00,
2013-03-15 11:52:00,52.0,30.0,30.11,North,0,0.0,3.0,42,0.00,,,0.00,,2013-03-15 15:52:00,
2013-03-15 12:03:00,52.0,29.0,30.10,SSE,147,3.0,11.0,41,0.00,,,0.00,,2013-03-15 16:03:00,
2013-03-15 12:12:00,52.0,29.0,30.10,SSE,147,3.0,11.0,41,0.00,,,0.00,,2013-03-15 16:12:00,
2013-03-15 12:23:00,52.0,29.0,30.10,SSE,147,3.0,11.0,41,0.00,,,0.00,,2013-03-15 16:23:00,
2013-03-15 12:32:00,55.0,30.0,30.07,North,0,0.0,5.0,38,0.00,,,0.00,,2013-03-15 16:32:00,
2013-03-15 12:42:00,55.0,30.0,30.07,North,0,0.0,5.0,38,0.00,,,0.00,,2013-03-15 16:42:00,
2013-03-15 12:53:00,56.0,31.0,30.07,NNW,344,2.0,10.0,38,0.00,,,0.00,,2013-03-15 16:53:00,
2013-03-15 13:02:00,55.0,31.0,30.07,SSE,160,1.0,11.0,40,0.00,,,0.00,,2013-03-15 17:02:00,
2013-03-15 13:12:00,55.0,31.0,30.07,SSE,160,1.0,11.0,40,0.00,,,0.00,,2013-03-15 17:12:00,
2013-03-15 13:22:00,57.0,35.0,30.06,SE,126,3.0,11.0,43,0.00,,,0.00,,2013-03-15 17:22:00,
2013-03-15 13:32:00,57.0,34.0,30.05,WSW,258,1.0,12.0,41,0.00,,,0.00,,2013-03-15 17:32:00,
2013-03-15 13:42:00,57.0,34.0,30.05,WSW,258,1.0,12.0,41,0.00,,,0.00,,2013-03-15 17:42:00,
2013-03-15 13:52:00,58.0,36.0,30.04,NW,326,3.0,9.0,43,0.00,,,0.00,,2013-03-15 17:52:00,
2013-03-15 14:03:00,59.0,34.0,30.03,North,0,0.0,7.0,39,0.00,,,0.00,,2013-03-15 18:03:00,
2013-03-15 14:12:00,59.0,34.0,30.03,North,0,0.0,7.0,39,0.00,,,0.00,,2013-03-15 18:12:00,
2013-03-15 14:22:00,59.0,34.0,30.02,SSE,151,2.0,7.0,39,0.00,,,0.00,,2013-03-15 18:22:00,
2013-03-15 14:32:00,59.0,35.0,30.01,North,0,0.0,9.0,40,0.00,,,0.00,,2013-03-15 18:32:00,
2013-03-15 14:42:00,59.0,35.0,30.01,North,0,0.0,9.0,40,0.00,,,0.00,,2013-03-15 18:42:00,
2013-03-15 14:52:00,61.0,36.0,29.99,North,0,0.0,6.0,39,0.00,,,0.00,,2013-03-15 18:52:00,
2013-03-15 15:02:00,60.0,35.0,29.97,West,261,1.0,10.0,39,0.00,,,0.00,,2013-03-15 19:02:00,
2013-03-15 15:12:00,60.0,35.0,29.97,West,261,1.0,10.0,39,0.00,,,0.00,,2013-03-15 19:12:00,
2013-03-15 15:22:00,61.0,36.0,29.97,SW,229,2.0,11.0,39,0.00,,,0.00,,2013-03-15 19:22:00,
2013-03-15 15:32:00,61.0,36.0,29.96,NW,313,2.0,6.0,40,0.00,,,0.00,,2013-03-15 19:32:00,
2013-03-15 15:42:00,61.0,36.0,29.96,NW,313,2.0,6.0,40,0.00,,,0.00,,2013-03-15 19:42:00,
2013-03-15 15:52:00,61.0,36.0,29.96,NW,313,2.0,6.0,40,0.00,,,0.00,,2013-03-15 19:52:00,
2013-03-15 16:02:00,62.0,36.0,29.94,WNW,284,2.0,6.0,38,0.00,,,0.00,,2013-03-15 20:02:00,
2013-03-15 16:12:00,62.0,36.0,29.94,WNW,284,2.0,6.0,38,0.00,,,0.00,,2013-03-15 20:12:00,
2013-03-15 16:22:00,61.0,36.0,29.93,SSE,157,2.0,12.0,40,0.00,,,0.00,,2013-03-15 20:22:00,
2013-03-15 16:32:00,61.0,37.0,29.94,West,271,1.0,7.0,41,0.00,,,0.00,,2013-03-15 20:32:00,
2013-03-15 16:42:00,61.0,37.0,29.94,West,271,1.0,7.0,41,0.00,,,0.00,,2013-03-15 20:42:00,
2013-03-15 16:52:00,59.0,35.0,29.93,SSW,205,3.0,6.0,41,0.00,,,0.00,,2013-03-15 20:52:00,
2013-03-15 17:02:00,59.0,37.0,29.92,North,0,0.0,14.0,43,0.00,,,0.00,,2013-03-15 21:02:00,
2013-03-15 17:12:00,59.0,37.0,29.92,North,0,0.0,14.0,43,0.00,,,0.00,,2013-03-15 21:12:00,
2013-03-15 17:22:00,59.0,37.0,29.92,SW,217,1.0,12.0,44,0.00,,,0.00,,2013-03-15 21:22:00,
2013-03-15 17:33:00,58.0,36.0,29.91,South,170,1.0,12.0,44,0.00,,,0.00,,2013-03-15 21:33:00,
2013-03-15 17:43:00,58.0,36.0,29.91,South,170,1.0,12.0,44,0.00,,,0.00,,2013-03-15 21:43:00,
2013-03-15 17:52:00,58.0,37.0,29.91,SE,140,1.0,5.0,45,0.00,,,0.00,,2013-03-15 21:52:00,
2013-03-15 18:04:00,59.0,38.0,29.90,North,0,0.0,6.0,45,0.00,,,0.00,,2013-03-15 22:04:00,
2013-03-15 18:14:00,59.0,38.0,29.90,North,0,0.0,6.0,45,0.00,,,0.00,,2013-03-15 22:14:00,
2013-03-15 18:22:00,59.0,37.0,29.90,East,82,1.0,9.0,44,0.00,,,0.00,,2013-03-15 22:22:00,
2013-03-15 18:32:00,59.0,37.0,29.91,North,0,0.0,6.0,44,0.00,,,0.00,,2013-03-15 22:32:00,
2013-03-15 18:42:00,59.0,37.0,29.91,North,0,0.0,6.0,44,0.00,,,0.00,,2013-03-15 22:42:00,
2013-03-15 18:53:00,59.0,37.0,29.90,ESE,121,1.0,10.0,44,0.00,,,0.00,,2013-03-15 22:53:00,
2013-03-15 19:02:00,58.0,37.0,29.90,North,0,0.0,10.0,45,0.00,,,0.00,,2013-03-15 23:02:00,
2013-03-15 19:12:00,58.0,37.0,29.90,North,0,0.0,10.0,45,0.00,,,0.00,,2013-03-15 23:12:00,
2013-03-15 19:22:00,58.0,37.0,29.90,North,0,0.0,5.0,46,0.00,,,0.00,,2013-03-15 23:22:00,
2013-03-15 19:32:00,58.0,37.0,29.90,North,0,0.0,6.0,46,0.00,,,0.00,,2013-03-15 23:32:00,
2013-03-15 19:42:00,58.0,37.0,29.90,North,0,0.0,6.0,46,0.00,,,0.00,,2013-03-15 23:42:00,
2013-03-15 19:52:00,56.0,37.0,29.90,WSW,251,1.0,7.0,48,0.00,,,0.00,,2013-03-15 23:52:00,
2013-03-15 20:03:00,55.0,37.0,29.90,North,0,0.0,5.0,50,0.00,,,0.00,,2013-03-16 00:03:00,
2013-03-15 20:12:00,55.0,37.0,29.90,North,0,0.0,5.0,50,0.00,,,0.00,,2013-03-16 00:12:00,
2013-03-15 20:22:00,55.0,37.0,29.90,North,0,0.0,1.0,51,0.00,,,0.00,,2013-03-16 00:22:00,
2013-03-15 20:32:00,54.0,37.0,29.89,North,0,0.0,2.0,52,0.00,,,0.00,,2013-03-16 00:32:00,
2013-03-15 20:42:00,54.0,37.0,29.89,North,0,0.0,2.0,52,0.00,,,0.00,,2013-03-16 00:42:00,
2013-03-15 20:52:00,54.0,38.0,29.89,North,0,0.0,3.0,54,0.00,,,0.00,,2013-03-16 00:52:00,
2013-03-15 21:03:00,53.0,37.0,29.89,North,0,0.0,3.0,54,0.00,,,0.00,,2013-03-16 01:03:00,
2013-03-15 21:12:00,53.0,37.0,29.89,North,0,0.0,3.0,54,0.00,,,0.00,,2013-03-16 01:12:00,
2013-03-15 21:22:00,52.0,37.0,29.89,North,0,0.0,0.0,56,0.00,,,0.00,,2013-03-16 01:22:00,
2013-03-15 21:32:00,52.0,37.0,29.88,North,0,0.0,3.0,56,0.00,,,0.00,,2013-03-16 01:32:00,
2013-03-15 21:42:00,52.0,37.0,29.88,North,0,0.0,3.0,56,0.00,,,0.00,,2013-03-16 01:42:00,
2013-03-15 21:53:00,52.0,37.0,29.88,North,0,0.0,3.0,56,0.00,,,0.00,,2013-03-16 01:53:00,
2013-03-15 22:02:00,52.0,37.0,29.88,West,275,1.0,4.0,56,0.00,,,0.00,,2013-03-16 02:02:00,
2013-03-15 22:12:00,52.0,37.0,29.88,West,275,1.0,4.0,56,0.00,,,0.00,,2013-03-16 02:12:00,
2013-03-15 22:23:00,52.0,37.0,29.88,North,0,0.0,2.0,56,0.00,,,0.00,,2013-03-16 02:23:00,
2013-03-15 22:33:00,52.0,36.0,29.88,North,0,0.0,2.0,55,0.00,,,0.00,,2013-03-16 02:33:00,
2013-03-15 22:42:00,52.0,36.0,29.88,North,0,0.0,2.0,55,0.00,,,0.00,,2013-03-16 02:42:00,
2013-03-15 22:52:00,52.0,36.0,29.88,North,0,0.0,2.0,55,0.00,,,0.00,,2013-03-16 02:52:00,
2013-03-15 23:02:00,52.0,36.0,29.88,North,0,0.0,4.0,55,0.00,,,0.00,,2013-03-16 03:02:00,
2013-03-15 23:12:00,52.0,36.0,29.88,North,0,0.0,4.0,55,0.00,,,0.00,,2013-03-16 03:12:00,
2013-03-15 23:22:00,52.0,37.0,29.88,North,0,0.0,4.0,56,0.00,,,0.00,,2013-03-16 03:22:00,
2013-03-15 23:33:00,51.0,36.0,29.87,North,0,0.0,2.0,57,0.00,,,0.00,,2013-03-16 03:33:00,
2013-03-15 23:43:00,51.0,36.0,29.87,North,0,0.0,2.0,57,0.00,,,0.00,,2013-03-16 03:43:00,
2013-03-15 23:53:00,51.0,36.0,29.87,North,0,0.0,2.0,57,0.00,,,0.00,,2013-03-16 03:53:00,